This is the latest recevied weather packets stored in our database for station/object HB9DDE-10. If no packets are shown the sender has not sent any weather packets the latest 10 day(s).
| Time | Temp. | Humidity | Pressure | Rain* | Wind** | Luminosity | Snow |
|---|---|---|---|---|---|---|---|
| 1777803230 | 20° C | 55% | 1016 hPa | 0 mm | - | - | - |
| 1777802920 | 19.44° C | 56% | 1016.1 hPa | 0 mm | - | - | - |
| 1777802614 | 19.44° C | 53% | 1016.3 hPa | 0 mm | - | - | - |
| 1777802324 | 19.44° C | 54% | 1016.5 hPa | 0 mm | - | - | - |
| 1777802015 | 19.44° C | 53% | 1016.7 hPa | 0 mm | - | - | - |
| 1777801725 | 19.44° C | 53% | 1016.6 hPa | 0 mm | - | - | - |
| 1777801433 | 19.44° C | 55% | 1016.6 hPa | 0 mm | - | - | - |
| 1777801121 | 18.89° C | 55% | 1016.8 hPa | 0 mm | - | - | - |
| 1777800830 | 18.89° C | 55% | 1016.8 hPa | 0 mm | - | - | - |
| 1777800521 | 18.89° C | 54% | 1016.9 hPa | 0 mm | - | - | - |
| 1777800215 | 18.89° C | 53% | 1016.9 hPa | 0 mm | - | - | - |
| 1777799925 | 18.89° C | 54% | 1016.9 hPa | 0 mm | - | - | - |
| 1777799614 | 18.89° C | 53% | 1017 hPa | 0 mm | - | - | - |
| 1777799326 | 18.89° C | 52% | 1016.9 hPa | 0 mm | - | - | - |
| 1777799016 | 18.89° C | 53% | 1016.9 hPa | 0 mm | - | - | - |
| 1777798729 | 18.89° C | 53% | 1017 hPa | 0 mm | - | - | - |
| 1777798419 | 18.33° C | 55% | 1017 hPa | 0 mm | - | - | - |
| 1777798129 | 18.89° C | 56% | 1017.1 hPa | 0 mm | - | - | - |
| 1777797818 | 18.33° C | 59% | 1017.1 hPa | 0 mm | - | - | - |
| 1777797568 | 18.33° C | 61% | 1017.1 hPa | 0 mm | - | - | - |
| 1777797214 | 17.78° C | 62% | 1017.1 hPa | 0 mm | - | - | - |
| 1777796925 | 17.78° C | 62% | 1017.2 hPa | 0 mm | - | - | - |
| 1777796615 | 17.22° C | 62% | 1017.3 hPa | 0 mm | - | - | - |
| 1777796325 | 17.22° C | 63% | 1017.4 hPa | 0 mm | - | - | - |
| 1777796014 | 17.22° C | 65% | 1017.4 hPa | 0 mm | - | - | - |
* Rain latest hour (hover to see other rain measurements)
** Current wind speed in m/s (hover to see current wind gust speed)